Volver al catálogo

STARLINK-2745

ActivoComunicacionesVLEO
NORAD 48671·PAYLOAD·🇺🇸 United States

Lanzado May 26, 2021 desde Cape Canaveral Space Force Station

Loading…

Próximos Pases (próximas 24 horas)

TLE

ActualizadoSource: CelesTrak SupGP

Época: Sep 14, 2026, 21:05 UTC

1 48671C 21044AK  26257.87895833 -.00016123  00000+0 -51846-3 0  2578
2 48671  53.1580 315.0960 0001273  85.9080 328.0835 15.31709981    11

Sigue STARLINK-2745 en tiempo real con AllMySat

Download on the App Store